Regional Weather Roundup
Issued by NWS

Home | Current Version | Previous Version | Text Only | Print | Product List | Glossary On
Versions: 1 2 3 4 5 6 7 8 9 10 11 12 13 14 15 16 17 18 19 20 21 22 23 24 25 26 27 28 29 30 31 32 33 34 35 36 37 38 39 40 41 42 43 44 45 46 47 48 49 50
000
ASUS43 KTOP 011008
RWRKS

WEATHER ROUNDUP FOR KANSAS
NATIONAL WEATHER SERVICE GOODLAND KS
500 AM CDT FRI AUG 01 2014

NOTE:  "FAIR" INDICATES FEW OR NO CLOUDS BELOW 12,000 FEET WITH NO
SIGNIFICANT WEATHER AND/OR OBSTRUCTIONS TO VISIBILITY.

KSZ001>006-013>018-027>032-041>047-011100-
NORTHWEST KANSAS

CITY           SKY/WX    TMP DP  RH WIND       PRES   REMARKS
GOODLAND       CLEAR     58  53  84 N6        30.18R
HAYS           CLEAR     61  54  77 W7        30.06S
HILL CITY      CLEAR     59  52  77 CALM      30.07S
RUSSELL        CLEAR     63  58  83 SW8       30.04S
$$

KSZ061>065-074>080-084>089-011100-
SOUTHWEST KANSAS

CITY           SKY/WX    TMP DP  RH WIND       PRES   REMARKS
DODGE CITY     CLEAR     63  56  78 SW8       30.13R
ELKHART          N/A     61  52  72 SW6         N/A
GARDEN CITY    CLEAR     58  56  93 W6        30.13F
GREAT BEND       N/A     63  57  82 SW8       30.07S
LIBERAL        PTCLDY    61  54  77 W7        30.16F
PRATT          PTCLDY    61  57  88 SW6       30.11S
$$

KSZ066>073-081>083-090>101-011100-
SOUTHEAST KANSAS

CITY           SKY/WX    TMP DP  RH WIND       PRES   REMARKS
CHANUTE        CLEAR     63  62  97 S5        30.08R FOG
COFFEYVILLE    CLOUDY    65  65 100 S8        30.07S FOG
HUTCHINSON     PTCLDY    66  57  72 SW7       30.08R
MEDICINE LODGE   N/A     61  59  93 CALM      30.09S
NEWTON         PTCLDY    64  57  77 SW9       30.10S
PARSONS        FOG       60  59  96 CALM      30.09R VSB 3/4
WICHITA INTL   MOCLDY    63  61  93 SW3       30.08R
WICHITA JABRA  PTCLDY    66  63  90 SW7       30.08S
WICHITA MCCONL CLEAR     63  63 100 S6        30.08S
WINFIELD       FOG       62  62 100 CALM      30.09S VSB 3/4
$$

KSZ007>012-019>026-033>040-048>060-102>105-011100-
NORTHEAST KANSAS

CITY           SKY/WX    TMP DP  RH WIND       PRES   REMARKS
CONCORDIA      CLEAR     65  56  72 W7        30.02S
EMPORIA        CLEAR     65  62  90 SW8       30.07S
LAWRENCE       MOCLDY    66  61  84 S5        30.07F
MANHATTAN      MOCLDY    67  60  78 S5        30.04R
MARYSVILLE     CLOUDY    68  57  68 SE8       30.04S
OLATHE IND     MOCLDY    64  60  87 S3        30.09R
OLATHE EXE     PTCLDY    66  60  81 CALM      30.08R
SALINA         CLEAR     65  55  70 S9        30.04F
TOPEKA BILLARD MOCLDY    66  63  90 CALM      30.07F
TOPEKA FORBES  MOCLDY    64  59  83 CALM      30.08R
$$


USA.gov is the U.S. government's official web portal to all federal, state and local government web resources and services.